Theta_e
284 283 283 282 282 284 283 283 283 283 283 283 283 284 283 284 284 283 283 283 284 282 282 282 282 282 282 282 281 281 280 280 279 279 279 279 278 277 277 276 276 276
283 285 287 286 285 285 284 284 283 283 283 282 283 283 283 283 283 282 282 282 282 281 282 282 282 282 281 280 280 279 278 278 277 280 278 277 276 276 276 275 275 275
283 283 283 283 283 284 284 284 283 282 282 282 282 283 283 282 282 281 281 282 281 281 281 281 280 280 279 278 278 277 277 276 276 277 277 275 276 275 275 275 274 275
283 282 282 283 283 283 282 282 282 282 282 282 281 282 282 283 281 281 281 282 280 280 280 279 279 278 277 277 276 276 276 275 276 276 275 275 275 275 274 275 275 274
282 282 282 282 282 282 282 282 281 281 281 280 281 281 281 280 280 280 280 280 279 279 278 277 277 276 276 275 275 274 275 275 275 275 274 274 274 275 275 275 274 274
281 281 282 282 282 281 281 281 281 280 280 280 280 281 279 279 279 279 279 278 278 277 276 276 275 275 275 274 274 274 274 274 274 274 274 274 274 274 275 275 274 274
281 281 281 281 281 281 280 280 280 280 279 279 279 279 279 278 278 277 277 277 276 276 275 274 274 274 274 274 273 273 273 274 274 274 274 274 275 275 275 276 275 275
281 280 280 280 280 280 280 279 279 279 279 278 278 278 278 277 277 276 276 275 275 274 274 273 273 273 273 273 273 273 273 275 275 275 275 275 276 275 276 276 274 273
280 280 280 280 280 279 279 279 279 278 279 278 277 277 277 276 276 275 275 274 274 274 273 273 273 273 273 273 272 273 273 275 276 276 275 275 275 275 274 274 273 273
280 279 280 279 279 278 278 278 278 278 278 277 276 276 275 275 275 274 274 273 273 273 272 272 272 272 272 272 273 273 275 276 275 276 276 276 275 275 274 274 273 273
279 279 279 279 278 278 277 277 277 277 277 276 275 275 274 274 274 274 273 273 273 272 272 272 272 272 272 272 273 276 277 276 276 276 276 276 276 275 275 274 274 274
279 279 278 278 278 277 277 276 276 276 275 275 275 274 274 273 273 273 273 272 272 272 272 272 272 272 272 273 276 277 277 277 277 277 277 276 276 275 275 275 273 272
278 278 278 277 277 276 276 276 275 275 274 274 274 273 273 273 273 272 273 272 272 272 272 272 272 272 272 275 277 277 277 277 277 277 276 275 275 274 274 273 272 272
278 278 277 277 276 276 275 275 274 274 274 273 274 273 273 272 272 272 272 272 272 272 272 272 271 271 272 276 277 277 277 276 276 276 275 274 273 273 273 272 272 272
278 278 277 276 275 275 274 274 274 274 273 273 273 273 273 272 272 272 271 271 271 271 271 271 271 271 273 276 277 277 276 276 276 275 274 272 272 272 272 273 273 273
277 277 276 275 274 274 274 273 273 273 273 272 272 272 272 272 272 272 271 271 270 270 270 271 270 271 275 278 279 277 276 276 276 274 273 272 272 272 272 273 273 273
277 276 275 274 274 273 273 273 273 273 272 272 272 272 272 271 271 271 270 270 270 270 269 270 270 271 276 278 278 278 277 276 274 273 272 272 272 272 272 272 273 273
276 275 274 273 273 273 273 273 272 272 272 272 271 271 271 271 270 270 270 270 270 269 269 269 269 273 277 277 277 278 278 277 274 273 272 272 272 272 272 273 273 273
275 274 273 273 273 273 272 272 272 272 271 271 271 271 271 270 270 269 269 269 269 268 268 269 269 273 276 277 276 277 278 278 274 273 272 272 272 273 273 273 273 273
274 273 272 272 272 272 272 272 271 271 271 271 271 270 270 269 269 269 269 268 268 268 268 269 269 273 275 276 276 277 278 278 274 274 273 273 273 273 273 273 273 273
273 272 272 272 272 272 272 271 271 271 271 270 270 270 269 268 268 268 268 268 268 268 268 268 268 274 274 275 276 277 278 277 275 274 273 273 273 274 274 274 274 273
272 272 272 271 272 271 271 271 270 270 270 270 270 269 269 269 268 268 267 267 267 267 267 267 269 273 274 275 276 277 278 275 275 274 273 273 273 274 275 274 274 274
272 272 271 271 271 271 270 270 270 270 269 270 269 268 268 268 267 267 267 266 266 267 267 268 268 270 273 274 275 277 276 274 274 274 273 273 274 274 274 274 274 274
272 271 271 271 271 270 270 270 270 270 269 269 268 267 267 267 266 266 266 266 266 266 268 268 267 269 272 274 275 276 276 274 274 274 273 273 274 274 274 274 273 273
271 271 271 270 270 270 270 269 269 268 268 268 267 266 266 266 266 265 266 266 267 268 269 268 267 268 272 273 275 275 275 274 274 274 272 273 273 273 273 272 271 271
271 271 270 270 270 269 269 268 268 267 267 266 266 266 265 265 265 266 266 267 268 268 268 268 268 268 269 273 274 275 276 275 275 273 272 273 273 271 270 270 270 270
Wind_Speed
2 1 1 2 2 2 2 2 2 2 3 2 2 4 5 4 4 4 4 4 4 4 5 5 5 5 6 6 5 5 4 5 5 5 6 6 5 5 6 6 5 5
2 1 0 0 0 1 2 2 2 2 2 3 3 3 4 3 4 3 4 5 5 5 5 5 6 6 6 5 5 6 5 5 6 5 5 6 5 6 6 6 6 6
2 2 2 3 3 4 3 3 3 3 3 3 3 4 4 3 4 4 4 4 5 5 6 6 6 5 5 5 5 5 6 6 6 5 5 6 6 6 6 5 5 5
3 2 3 4 4 4 2 4 4 4 4 5 4 4 3 3 3 4 4 5 5 6 6 5 5 5 5 6 6 6 5 5 5 5 6 5 5 5 6 4 5 5
3 3 4 4 3 4 5 6 5 4 4 3 3 4 4 4 4 4 6 7 7 6 5 5 4 6 6 6 6 6 5 6 6 6 5 5 5 5 5 5 5 5
4 4 4 5 4 5 6 5 4 4 3 4 4 3 3 3 4 5 7 6 6 5 5 5 6 7 6 6 6 5 6 6 6 5 5 5 5 5 5 6 5 5
4 4 5 4 5 5 6 4 3 3 3 3 3 4 3 5 6 6 5 5 5 5 6 6 6 6 6 6 5 6 6 5 5 5 6 5 5 6 5 6 8 8
4 4 4 4 6 5 5 4 4 4 3 3 4 4 5 6 5 5 4 5 5 6 6 6 6 6 6 5 6 6 6 5 5 6 7 8 7 9 9 8 9 8
4 4 4 5 6 5 5 4 3 3 3 4 5 5 5 4 4 5 5 5 5 5 5 6 6 6 6 5 6 6 6 5 6 7 9 9 9 9 9 8 7 7
4 3 5 5 5 3 4 3 3 3 3 6 5 4 5 4 4 5 5 5 5 5 6 6 6 6 6 6 6 6 5 7 7 8 9 9 9 8 7 8 8 9
4 4 5 5 4 3 4 3 4 5 5 5 4 4 4 5 6 5 5 5 6 6 6 6 6 6 7 7 7 5 8 8 9 9 9 9 9 7 10 9 9 9
4 4 4 3 3 3 3 4 5 5 4 4 4 5 5 5 5 5 5 5 5 5 5 6 6 6 7 7 7 8 8 9 9 9 9 10 9 9 9 9 8 8
4 3 3 3 3 4 4 5 4 4 4 5 4 5 5 5 5 5 5 5 5 5 6 6 6 6 7 7 8 9 9 10 10 10 10 9 9 9 9 8 7 6
3 2 3 3 4 4 4 3 4 4 4 3 4 5 5 5 5 6 5 5 5 5 5 5 5 6 6 7 9 9 10 10 10 9 10 10 9 8 7 7 7 7
2 2 3 4 4 4 4 5 5 4 3 3 3 4 4 5 5 5 6 5 5 5 5 5 5 6 5 9 9 10 10 10 9 8 8 8 8 8 8 8 7 7
2 3 4 4 5 5 5 4 4 3 3 3 4 4 4 5 5 5 4 5 5 5 5 5 6 4 10 16 14 11 10 10 6 6 7 9 9 10 10 10 10 10
4 3 3 5 4 5 4 4 4 3 3 4 4 4 5 5 5 5 5 5 5 6 6 5 5 6 15 15 16 17 12 9 5 7 8 8 9 10 11 12 11 11
3 3 5 5 5 4 4 3 3 3 4 4 5 5 6 4 5 5 5 5 5 6 5 6 5 11 16 16 16 17 16 11 5 7 8 8 8 10 11 11 11 11
3 4 4 5 4 3 3 3 3 4 4 5 5 5 5 5 6 6 6 6 6 7 6 6 5 12 16 17 16 17 18 14 5 8 8 8 9 11 12 11 10 10
3 4 4 3 2 2 3 3 4 4 3 3 4 4 5 5 6 7 6 6 7 7 6 6 6 12 16 17 16 17 18 15 6 8 8 9 10 12 11 10 10 10
3 4 3 2 2 3 3 3 3 3 3 4 4 4 5 6 6 7 6 7 7 6 6 6 5 15 16 17 16 17 19 13 8 8 8 9 11 11 10 9 10 9
3 3 2 2 3 3 3 3 3 3 4 5 4 4 4 4 4 5 7 7 7 6 6 6 6 15 16 16 17 17 18 9 8 8 9 10 10 10 9 9 9 9
2 2 2 3 3 4 4 3 4 4 4 4 4 4 5 5 6 6 5 6 6 6 6 7 8 12 16 16 17 19 14 9 8 7 9 10 10 9 9 9 9 9
2 2 3 3 3 4 4 3 3 2 3 4 4 5 5 6 6 5 5 5 5 5 6 8 7 11 16 17 18 18 15 10 8 8 9 9 9 9 9 8 8 15
2 3 3 2 3 3 3 4 4 4 3 3 3 3 4 4 5 5 5 5 4 5 8 8 7 10 16 17 18 18 14 9 9 8 9 9 9 9 9 8 8 9
2 2 2 2 2 3 2 3 3 3 4 3 3 3 4 4 5 5 5 5 5 6 6 7 8 9 12 18 17 17 18 11 8 8 9 10 9 9 10 9 9 7
Wind_Direction
268 281 262 271 270 252 272 326 0 20 350 330 341 350 7 346 348 350 342 339 343 346 343 347 347 352 354 352 345 335 330 327 331 333 342 339 328 328 326 326 323 315
334 300 298 306 357 19 29 57 25 29 349 15 18 7 1 0 346 355 344 342 343 346 346 351 358 356 350 345 337 334 336 342 339 339 336 332 324 326 324 321 316 312
31 59 72 66 58 44 41 38 54 41 37 24 22 19 1 356 352 349 344 343 346 347 355 358 354 349 345 337 340 342 342 338 336 333 335 331 327 327 316 315 316 321
43 56 75 66 65 75 76 68 40 34 28 30 15 359 3 353 355 346 346 350 358 357 356 353 347 338 343 344 349 345 335 333 327 332 332 324 321 322 317 322 324 324
80 63 61 68 69 68 57 55 44 33 36 17 12 11 9 1 353 353 358 2 1 349 348 343 342 350 353 350 345 337 338 338 332 330 323 319 317 327 324 331 328 329
51 64 64 66 55 60 56 54 42 38 27 24 12 5 5 355 5 5 4 355 347 341 344 348 356 353 348 342 337 339 335 332 320 319 321 325 326 328 331 331 328 333
59 56 56 59 64 59 65 51 39 35 29 13 8 21 1 12 15 2 353 348 339 349 354 352 351 344 340 339 337 329 322 313 312 320 328 327 333 332 333 334 342 340
62 58 62 65 66 53 56 43 32 28 15 19 36 12 23 14 2 351 344 344 348 353 353 347 345 340 334 333 326 321 315 317 321 331 334 341 343 343 346 351 345 338
68 60 64 65 65 51 51 37 24 22 22 34 26 21 9 10 349 344 347 351 351 350 348 349 341 334 328 325 320 316 313 318 338 343 343 341 341 341 346 344 335 331
63 63 66 62 63 51 53 35 31 27 28 35 26 11 3 350 349 355 354 352 348 350 350 343 336 332 328 323 316 307 322 343 343 340 339 338 334 333 339 334 332 335
63 63 70 63 63 53 48 40 36 37 30 30 15 9 359 355 357 356 351 353 350 348 344 341 335 332 328 322 313 317 347 341 338 337 336 335 332 335 335 332 332 338
69 65 65 65 60 54 49 41 40 35 28 22 22 5 2 359 349 350 349 347 343 345 341 335 331 329 323 317 325 347 341 339 336 334 336 336 335 335 332 334 343 342
70 74 72 66 60 58 48 42 37 32 28 24 12 7 357 348 345 346 342 344 339 342 340 333 332 324 318 323 345 341 341 339 338 336 339 338 335 335 335 337 330 317
86 79 75 63 62 53 49 42 36 32 26 16 9 2 352 345 346 341 338 338 339 339 335 331 330 323 307 332 345 343 345 342 336 336 335 332 332 332 328 312 303 301
100 81 62 58 51 53 44 35 31 24 18 9 1 357 346 340 337 336 334 334 335 338 335 335 334 323 323 345 347 349 345 337 333 343 343 335 332 327 322 321 320 314
86 61 54 53 49 43 40 29 22 14 5 1 0 353 342 337 334 333 332 333 333 340 339 343 341 314 342 348 354 349 342 333 348 353 342 335 328 326 327 327 324 323
62 56 53 50 44 43 33 24 10 3 4 2 357 347 343 334 331 336 338 338 339 342 342 346 340 332 345 350 353 349 341 340 358 349 342 328 325 325 326 325 324 322
65 59 53 45 40 32 21 10 360 7 7 1 349 344 340 330 338 342 338 345 344 343 343 342 337 339 348 351 351 345 339 343 351 348 333 324 322 323 323 323 322 321
58 59 53 43 32 15 5 4 10 7 5 356 349 339 334 340 342 344 343 346 344 343 342 339 341 339 350 350 347 343 339 345 359 339 323 321 319 321 322 320 321 320
59 58 52 40 16 10 3 11 6 6 356 346 330 338 342 341 337 340 342 346 346 340 335 338 338 341 350 348 345 341 338 347 349 332 325 320 320 318 318 321 321 321
60 53 49 21 12 7 10 7 356 349 352 350 341 349 346 347 338 337 339 340 338 336 332 338 333 344 348 347 344 340 340 348 335 330 327 321 315 312 319 319 323 321
64 55 36 18 14 11 8 358 349 353 348 345 333 342 338 331 334 338 338 337 335 334 331 339 338 345 346 346 343 340 343 342 334 330 321 309 297 300 321 323 321 320
67 62 36 22 18 7 1 348 346 344 353 349 340 345 339 346 344 339 328 325 329 328 338 342 341 341 345 344 343 341 343 336 328 317 321 313 316 316 321 322 322 328
78 63 46 27 9 0 343 333 338 339 3 348 352 344 342 339 331 325 323 322 321 328 338 344 339 339 343 342 343 342 342 334 323 322 325 326 323 323 323 319 325 327
73 63 53 31 3 343 344 340 352 355 348 345 345 334 320 314 324 321 322 321 315 325 346 347 339 341 340 340 341 341 340 330 334 334 329 321 326 328 323 321 323 320
75 75 60 30 352 337 347 354 349 343 356 341 331 330 321 326 326 327 331 335 342 349 349 347 344 341 338 339 340 339 339 336 339 334 329 327 335 330 324 322 321 318